リニア彗星

C/2003 WT42 ( LINEAR )

English version
Home page
Updated on October 12, 2008

---------------------------------------------------------------------

・ プロフィール

発見日 2003年11月19日
発見光度 17.5等
発見者 Lincoln Laboratory Near-Earth Asteroid Research project

・ 写真集

・ 軌道要素

The following orbital elements are taken from MPC 56169:

Epoch 2006 Apr. 15.0 TT = JDT 2453840.5
T 2006 Apr. 10.7697 TT                                  MPC
q   5.190906             (2000.0)            P               Q
z  -0.000489       Peri.   92.4674      -0.6667053      -0.6351071
 +/-0.000001       Node    48.4540      +0.2821604      -0.6994612
e   1.002540       Incl.   31.4107      +0.6898475      -0.3277087
From 1086 observations 2003 Oct. 30-2006 Mar. 10, mean residual 0".5.

・ 星図

・ 光度変化

        m1 = -2.0 + 5 logΔ + 17.5 log r(t + 150)

---------------------------------------------------------------------

軌道要素はMPCのEphemerides and Orbital Elementsに掲載されたものです。
星図は StellaNavigator Ver.2.0 for Windows (アストロアーツ 編著 / アスキー出版局刊) で作成したものです。
光度グラフはComet for Windowsで作成したものです。

---------------------------------------------------------------------

Copyright(C) Seiichi Yoshida (comet@aerith.net). All rights reserved.